This is the latest recevied weather packets stored in our database for station/object W4TTU-1. If no packets are shown the sender has not sent any weather packets the latest 10 day(s).
| Time | Temp. | Humidity | Pressure | Rain* | Wind** | Luminosity | Snow |
|---|---|---|---|---|---|---|---|
| 1777634982 | -0.56° C | 35% | 851.6 hPa | 0 mm | - | - | - |
| 1777634081 | -0.56° C | 35% | 851.7 hPa | 0 mm | - | - | - |
| 1777633181 | 0° C | 35% | 851.7 hPa | 0 mm | - | - | - |
| 1777630479 | 0.56° C | 34% | 851.5 hPa | 0 mm | - | - | - |
| 1777629579 | 1.11° C | 34% | 851.4 hPa | 0 mm | - | - | - |
| 1777628678 | 1.67° C | 34% | 851.2 hPa | 0 mm | - | - | - |
| 1777627778 | 1.67° C | 34% | 851.2 hPa | 0 mm | - | - | - |
| 1777626877 | 2.22° C | 34% | 851.2 hPa | 0 mm | - | - | - |
| 1777625977 | 2.78° C | 35% | 851.2 hPa | 0 mm | - | - | - |
| 1777625076 | 2.78° C | 35% | 851.2 hPa | 0 mm | - | - | - |
| 1777624176 | 3.33° C | 35% | 851.2 hPa | 0 mm | - | - | - |
| 1777623275 | 3.33° C | 35% | 851.2 hPa | 0 mm | - | - | - |
| 1777622374 | 3.33° C | 35% | 851.3 hPa | 0 mm | - | - | - |
| 1777621476 | 3.33° C | 35% | 851.5 hPa | 0 mm | - | - | - |
| 1777620573 | 3.33° C | 34% | 851.4 hPa | 0 mm | - | - | - |
| 1777619673 | 3.89° C | 35% | 851.5 hPa | 0 mm | - | - | - |
| 1777618773 | 3.89° C | 34% | 851.5 hPa | 0 mm | - | - | - |
| 1777617872 | 3.89° C | 34% | 851.5 hPa | 0 mm | - | - | - |
| 1777616971 | 4.44° C | 32% | 851.4 hPa | 0 mm | - | - | - |
| 1777616071 | 5° C | 32% | 851.5 hPa | 0 mm | - | - | - |
| 1777615170 | 5.56° C | 32% | 851.4 hPa | 0 mm | - | - | - |
| 1777614275 | 6.11° C | 32% | 851.3 hPa | 0 mm | - | - | - |
| 1777613369 | 6.67° C | 32% | 851.2 hPa | 0 mm | - | - | - |
| 1777612469 | 7.22° C | 31% | 851.2 hPa | 0 mm | - | - | - |
| 1777611568 | 8.33° C | 31% | 851.2 hPa | 0 mm | - | - | - |
* Rain since midnight (hover to see other rain measurements)
** Current wind speed in m/s (hover to see current wind gust speed)